Weather History for Ogallala, NE

Change the Weather History Date:

Monday, March 4, 2013

  Actual Average Record
Temperature  
Mean Temperature 34 °F -  
Max Temperature 44 °F 45 °F 77 °F (2009)
Min Temperature 23 °F 20 °F -13 °F (1960)
Degree Days  
Heating Degree Days 31    
Moisture  
Dew Point 18 °F    
Average Humidity 52    
Maximum Humidity 78    
Minimum Humidity 27    
Precipitation  
Precipitation 0.01 in - - ()
Sea Level Pressure  
Sea Level Pressure 29.91 in    
Wind  
Wind Speed 16 mph (NNW)    
Max Wind Speed 32 mph    
Max Gust Speed 39 mph    
Visibility 10 miles    
Events      
Averages and records for this station are not official NWS values.
T = Trace of Precipitation, MM = Missing Value Source: NWS Daily Summary

Daily Weather History Graph

Daily Weather History Graph

Search for Another Location

Airport:

Trip Planner

Search our weather history database for the weather conditions in past years. The results will help you decide how hot, cold, wet, or windy it might be!

Date:

Astronomy

Mar. 04, 2013 Rise Set
Actual Time 6:16 AM MST 5:41 PM MST
Civil Twilight 5:48 AM MST 6:09 PM MST
Nautical Twilight 5:16 AM MST 6:41 PM MST
Astronomical Twilight 4:44 AM MST 7:13 PM MST
Moon 12:30 AM MST (3/4) 10:23 AM MST (3/4)
Length of Visible Light 12h 20m
Length of Day
11h 25m
Waning Gibbous, 51% of the Moon is Illuminated
Mar 4
Waning Gibbous
Mar 4
Last Quarter
Mar 11
New
Mar 19
First Quarter
Mar 27
Full

Hourly Weather History & Observations

Time (MST) Temp. Windchill Dew Point Humidity Pressure Visibility Wind Dir Wind Speed Gust Speed Precip Events Conditions
12:15 AM 40.5 °F 35.8 °F 31.3 °F 70% 29.62 in 10.0 mi West 6.9 mph - N/A   Clear
12:55 AM 43.2 °F 36.2 °F 31.8 °F 64% 29.65 in 10.0 mi WNW 13.8 mph 18.4 mph N/A   Clear
1:15 AM 44.2 °F 38.8 °F 32.0 °F 62% 29.67 in 10.0 mi NW 10.4 mph 20.7 mph N/A   Clear
1:35 AM 41.5 °F 35.9 °F 32.0 °F 69% 29.67 in 10.0 mi NW 9.2 mph - N/A   Clear
1:55 AM 41.2 °F 34.1 °F 31.3 °F 68% 29.69 in 10.0 mi NW 12.7 mph 23.0 mph N/A   Clear
2:15 AM 38.7 °F 28.8 °F 29.1 °F 69% 29.70 in 10.0 mi NNW 19.6 mph 26.5 mph N/A   Clear
2:35 AM 36.7 °F 29.4 °F 28.4 °F 72% 29.72 in 10.0 mi NW 10.4 mph 25.3 mph N/A   Clear
2:55 AM 35.6 °F 28.6 °F 28.2 °F 75% 29.73 in 10.0 mi WNW 9.2 mph - N/A   Clear
3:15 AM 35.1 °F 29.3 °F 28.0 °F 76% 29.74 in 10.0 mi WNW 6.9 mph - N/A   Clear
3:35 AM 34.2 °F 29.0 °F 27.3 °F 76% 29.74 in 10.0 mi NW 5.8 mph - N/A   Clear
3:55 AM 34.3 °F 27.0 °F 26.2 °F 72% 29.75 in 10.0 mi NNW 9.2 mph - N/A   Clear
4:15 AM 34.2 °F 26.8 °F 26.1 °F 72% 29.77 in 10.0 mi WNW 9.2 mph - N/A   Clear
4:55 AM 32.9 °F 25.3 °F 25.7 °F 75% 29.79 in 10.0 mi NW 9.2 mph - N/A   Clear
5:15 AM 32.0 °F 22.1 °F 25.3 °F 76% 29.77 in 10.0 mi NNW 13.8 mph - N/A   Clear
5:35 AM 33.4 °F 25.4 °F 24.8 °F 71% 29.78 in 10.0 mi NNW 10.4 mph - N/A   Clear
5:55 AM 33.3 °F 24.1 °F 25.0 °F 72% 29.78 in 10.0 mi NNW 12.7 mph 16.1 mph N/A   Clear
6:15 AM 32.5 °F 22.7 °F 26.1 °F 77% 29.79 in 10.0 mi NNW 13.8 mph - N/A   Clear
6:35 AM 32.9 °F 21.6 °F 26.6 °F 78% 29.79 in 10.0 mi NNW 18.4 mph - N/A   Clear
6:55 AM 34.2 °F 24.8 °F 26.4 °F 73% 29.80 in 10.0 mi NNW 13.8 mph 19.6 mph N/A   Clear
7:15 AM 34.2 °F 24.4 °F 26.2 °F 73% 29.82 in 10.0 mi NNW 15.0 mph 19.6 mph N/A   Clear
7:35 AM 33.4 °F 23.9 °F 26.1 °F 74% 29.81 in 10.0 mi NNW 13.8 mph - N/A   Clear
7:55 AM 35.1 °F 25.5 °F 27.0 °F 72% 29.81 in 10.0 mi NNW 15.0 mph - N/A   Clear
8:15 AM 36.7 °F 27.6 °F 26.6 °F 67% 29.81 in 10.0 mi NNW 15.0 mph - N/A   Clear
8:35 AM 37.8 °F 28.3 °F 26.4 °F 64% 29.80 in 10.0 mi North 17.3 mph 24.2 mph N/A   Clear
8:55 AM 39.2 °F 30.2 °F 25.9 °F 59% 29.81 in 10.0 mi NNW 17.3 mph 25.3 mph N/A   Clear
9:15 AM 40.8 °F 32.3 °F 25.7 °F 55% 29.81 in 10.0 mi NNW 17.3 mph 21.9 mph N/A   Scattered Clouds
9:35 AM 42.3 °F 33.6 °F 23.5 °F 48% 29.81 in 10.0 mi NNW 19.6 mph 25.3 mph N/A   Mostly Cloudy
9:55 AM 43.5 °F 34.7 °F 18.5 °F 37% 29.81 in 10.0 mi North 21.9 mph 27.6 mph N/A   Mostly Cloudy
10:15 AM 42.4 °F 32.8 °F 15.6 °F 34% 29.82 in 10.0 mi NNW 24.2 mph 29.9 mph N/A   Overcast
10:35 AM 42.8 °F 33.5 °F 15.1 °F 33% 29.82 in 10.0 mi NNW 23.0 mph 29.9 mph N/A   Overcast
10:55 AM 43.7 °F 34.3 °F 15.1 °F 32% 29.83 in 10.0 mi NNW 25.3 mph 32.2 mph N/A   Overcast
11:15 AM 42.8 °F 33.5 °F 16.5 °F 35% 29.84 in 10.0 mi NNW 23.0 mph 29.9 mph N/A   Overcast
11:55 AM 42.8 °F 32.7 °F 16.0 °F 34% 29.84 in 10.0 mi NNW 27.6 mph 32.2 mph N/A   Overcast
12:15 PM 42.4 °F 32.0 °F 15.4 °F 34% 29.84 in 10.0 mi NNW 28.8 mph 35.7 mph N/A   Overcast
12:35 PM 41.5 °F 31.2 °F 13.8 °F 32% 29.85 in 10.0 mi NNW 26.5 mph 31.1 mph N/A   Overcast
12:55 PM 42.8 °F 32.1 °F 13.5 °F 30% 29.85 in 10.0 mi NNW 31.1 mph 35.7 mph N/A   Overcast
1:15 PM 42.6 °F 32.0 °F 13.5 °F 31% 29.86 in 10.0 mi NNW 29.9 mph 36.8 mph N/A   Overcast
1:35 PM 42.1 °F 31.5 °F 13.5 °F 31% 29.86 in 10.0 mi NNW 28.8 mph 33.4 mph N/A   Overcast
1:55 PM 42.8 °F 33.3 °F 14.5 °F 32% 29.87 in 10.0 mi North 24.2 mph 29.9 mph N/A   Mostly Cloudy
2:15 PM 43.3 °F 33.0 °F 10.9 °F 27% 29.88 in 10.0 mi NW 29.9 mph 36.8 mph N/A   Scattered Clouds
2:35 PM 42.3 °F 31.4 °F 11.1 °F 28% 29.89 in 10.0 mi NNW 31.1 mph 36.8 mph N/A   Scattered Clouds
2:55 PM 39.6 °F 29.0 °F 10.4 °F 30% 29.93 in 10.0 mi NW 24.2 mph 33.4 mph N/A   Mostly Cloudy
3:15 PM 39.0 °F 27.6 °F 8.1 °F 28% 29.96 in 10.0 mi NW 27.6 mph 33.4 mph 0.01 in   Mostly Cloudy
3:35 PM 37.6 °F 26.6 °F 8.4 °F 30% 29.98 in 3.0 mi NNW 23.0 mph 32.2 mph 0.01 in   Haze
3:55 PM 36.5 °F 24.9 °F 11.5 °F 36% 29.99 in 10.0 mi North 24.2 mph 27.6 mph 0.01 in   Overcast
4:15 PM 36.7 °F 25.7 °F 11.8 °F 36% 30.00 in 10.0 mi North 21.9 mph 28.8 mph N/A   Overcast
4:35 PM 35.8 °F 23.7 °F 11.1 °F 36% 30.01 in 10.0 mi NNW 25.3 mph 36.8 mph N/A   Mostly Cloudy
4:55 PM 35.6 °F 24.0 °F 9.7 °F 34% 30.02 in 10.0 mi NNW 23.0 mph 35.7 mph N/A   Scattered Clouds
5:15 PM 33.8 °F 20.8 °F 8.8 °F 35% 30.05 in 10.0 mi NW 26.5 mph 34.5 mph N/A   Clear
5:35 PM 32.4 °F 18.9 °F 7.9 °F 36% 30.06 in 10.0 mi NNW 26.5 mph 35.7 mph N/A   Clear
5:55 PM 31.6 °F 19.3 °F 8.2 °F 38% 30.08 in 10.0 mi NNW 20.7 mph 35.7 mph N/A   Clear
6:15 PM 30.7 °F 18.1 °F 7.3 °F 37% 30.09 in 10.0 mi NNW 20.7 mph 33.4 mph N/A   Clear
6:35 PM 30.0 °F 16.3 °F 7.7 °F 39% 30.10 in 10.0 mi NNW 24.2 mph 31.1 mph N/A   Clear
6:55 PM 29.3 °F 15.6 °F 8.2 °F 41% 30.11 in 10.0 mi NNW 23.0 mph 28.8 mph N/A   Clear
7:35 PM 28.8 °F 13.5 °F 8.4 °F 42% 30.12 in 10.0 mi NNW 28.8 mph 36.8 mph N/A   Clear
7:55 PM 28.4 °F 15.1 °F 8.8 °F 44% 30.14 in 10.0 mi NNW 20.7 mph 33.4 mph N/A   Clear
8:15 PM 27.9 °F 11.5 °F 9.5 °F 46% 30.14 in 10.0 mi NNW 32.2 mph 39.1 mph N/A   Clear
8:35 PM 27.5 °F 12.6 °F 10.2 °F 48% 30.15 in 10.0 mi NNW 25.3 mph 35.7 mph N/A   Clear
8:55 PM 26.8 °F 13.3 °F 10.9 °F 51% 30.16 in 10.0 mi NNW 19.6 mph 29.9 mph N/A   Clear
9:15 PM 26.4 °F 11.5 °F 10.9 °F 52% 30.16 in 10.0 mi NNW 24.2 mph 31.1 mph N/A   Clear
9:35 PM 26.2 °F 13.0 °F 10.4 °F 51% 30.16 in 10.0 mi NW 18.4 mph 26.5 mph N/A   Clear
9:55 PM 25.7 °F 13.1 °F 10.6 °F 53% 30.17 in 10.0 mi NNW 16.1 mph 25.3 mph N/A   Clear
10:15 PM 25.5 °F 14.3 °F 11.1 °F 54% 30.18 in 10.0 mi NW 12.7 mph - N/A   Clear
10:35 PM 25.7 °F 10.5 °F 10.9 °F 54% 30.18 in 10.0 mi NW 24.2 mph 32.2 mph N/A   Clear
10:55 PM 25.2 °F 12.0 °F 10.8 °F 54% 30.18 in 10.0 mi NW 17.3 mph 24.2 mph N/A   Clear
11:15 PM 24.8 °F 11.1 °F 11.7 °F 57% 30.18 in 10.0 mi NW 18.4 mph 26.5 mph N/A   Clear
11:35 PM 24.4 °F 11.5 °F 11.3 °F 57% 30.18 in 10.0 mi NW 16.1 mph 25.3 mph N/A   Clear
11:55 PM 23.9 °F 9.9 °F 11.1 °F 58% 30.19 in 10.0 mi WNW 18.4 mph - N/A   Clear